Retour au catalogue

COSMOS 1275 DEB

ActifPO
NORAD 39941·DEBRIS·🇷🇺 Russia

Lancé Jun 4, 1981 depuis Plesetsk Cosmodrome

Loading…

Prochains Passages (prochaines 24 heures)

TLE

VieillissantSource: Space-Track

Époque: Sep 9, 2026, 18:36 UTC

1 39941U 81053NB  26252.77505507  .00000925  00000-0  74891-3 0  9994
2 39941  83.0137  80.2443 0097072 289.5565  69.5136 13.87092724618992

Suivez COSMOS 1275 DEB en temps réel avec AllMySat

Download on the App Store